Location: Unspecified
(0.0000°N, 0.0000°E)
Time: 10:07:15
(UTC+00:00)

Courier 1B Rocket - Pass Details

Date: 21 May 2026
Orbit: 920 x 1201 km, 28.2° (Epoch: 9 June)

Event Time Altitude Azimuth Distance (km) Brightness Sun altitude
Rises 22:33:15 0° 217° (SW) 4,080 - -61.2°
Reaches altitude 10° 22:37:01 10° 202° (SSW) 3,091 - -61.8°
Maximum altitude 22:42:26 20° 156° (SSE) 2,347 - -62.7°
Drops below altitude 10° 22:47:39 10° 111° (ESE) 2,968 - -63.6°
Sets 22:51:09 0° 95° (E) 3,872 - -64.1°
